Погода в Октябрьском

Россия / Красноярский край     57°26′40″N   97°31′58″E
темп.,
°C
ветер,
м/с
пор.,
м/с
влажн.,
%
обл.,
%
осадки,
мм/ч
давл.,
гПа
погр.,
м
29 июля, чт
чт2901:00+12зсз2797100 0.1 1006180
04:00+12зсз3899100 0.9 1006280
07:00+13зсз4896100 1.8 1006435
10:00+15з4691100 0.7 1006622
13:00+17з4580100 0.8 1007821
16:00+18зсз467095 0.2 1007829
19:00+16з4671100 0.2 1008724
22:00+11з2596100 0.0 1009119
30 июля, пт
пт3001:00+10з2498100 0.0 1010109
04:00+11зюз2493100 0.0 1010148
07:00+14з2480100 0.0 1011300
10:00+18зсз3357100 0.0 1010978
13:00+22ссз2346100 0.0 10091362
16:00+21св225099 0.0 1009751
19:00+18вюв1168100 0.0 101019
22:00+14юв118292 0.0 101110
31 июля, сб
сб3101:00+12з119269 0.0 101210
04:00+11з119199 0.0 101310
07:00+16зюз126783 0.0 1014122
10:00+20з2447100 0.0 1014714
13:00+22з3441100 0.0 10151579
16:00+21ююз3246100 0.0 10151270
19:00+19ю2363100 0.0 101574
22:00+14ююз2288100 0.0 101617
1 августа, вс
вс101:00+12ю1196100 0.0 101510
04:00+11в1195100 0.0 101510
07:00+15юв1185100 0.0 1015105
10:00+18ююв1165100 0.0 1014386
13:00+20юв1258100 0.0 1013835
16:00+21вюв1150100 0.0 10121405
19:00+17юв2480100 0.1 1013227
22:00+12ю0195100 0.0 101210
2 августа, пн
пн201:00+12зюз1195100 0.0 101213
04:00+11з1196100 0.0 101113
07:00+15зюз1283100 0.0 1011151
10:00+19зюз236083 0.0 1010594
13:00+24юз24427 0.0 10091794
16:00+21ююз225592 0.0 1008218
19:00+21ююз266171 0.0 1009261
22:00+17ю22681 0.0 101028